,,,PA_Meas_PMT16A,,PR_Meas_QMR101_102,,RH_Meas_QMH101,,SR_Meas_QMS101,,TA_Meas_QMH101,,GenWind,,GenWind,
date,time,status,PA,status,PR,status,RH,status,SR,status,TA,status,DirAvg,status,SpdAvg,
2011-09-15, 00:00:05,VALID,1001.75,VALID,0,VALID,87.2142,VALID,0,VALID,23.5664,VALID,51,VALID,0.698438,
2011-09-15, 00:01:05,VALID,1001.74,VALID,0,VALID,87.588,VALID,0,VALID,23.5061,VALID,7,VALID,0.769922,
2011-09-15, 00:02:05,VALID,1001.75,VALID,0,VALID,88.0229,VALID,0,VALID,23.4475,VALID,7,VALID,1.0875,
2011-09-15, 00:03:05,VALID,1001.76,VALID,0,VALID,88.6104,VALID,0,VALID,23.4085,VALID,7,VALID,1.21602,
2011-09-15, 00:04:05,VALID,1001.74,VALID,0,VALID,89.1216,VALID,0,VALID,23.3305,VALID,6,VALID,1.63516,
2011-09-15, 00:05:05,VALID,1001.7,VALID,0,VALID,89.4344,VALID,0,VALID,23.2915,VALID,359,VALID,1.68594,
2011-09-15, 00:06:05,VALID,1001.69,VALID,0,VALID,89.6557,VALID,0,VALID,23.2524,VALID,359,VALID,1.17461,
2011-09-15, 00:07:05,VALID,1001.66,VALID,0,VALID,89.8006,VALID,0,VALID,23.2329,VALID,359,VALID,0.927734,
2011-09-15, 00:08:05,VALID,1001.66,VALID,0,VALID,89.7625,VALID,0,VALID,23.2932,VALID,354,VALID,0.739062,
2011-09-15, 00:09:05,VALID,1001.63,VALID,0,VALID,89.6328,VALID,0,VALID,23.311,VALID,316,VALID,0.830078,
2011-09-15, 00:10:05,VALID,1001.62,VALID,0,VALID,89.526,VALID,0,VALID,23.3713,VALID,317,VALID,0.893359,
2011-09-15, 00:11:05,VALID,1001.61,VALID,0,VALID,89.4573,VALID,0,VALID,23.35,VALID,316,VALID,0.598437,
2011-09-15, 00:12:05,VALID,1001.63,VALID,0,VALID,89.4497,VALID,0,VALID,23.35,VALID,317,VALID,0.727344,
2011-09-15, 00:13:05,VALID,1001.66,VALID,0,VALID,89.4191,VALID,0,VALID,23.389,VALID,317,VALID,0.503516,
2011-09-15, 00:14:05,VALID,1001.63,VALID,0,VALID,89.3276,VALID,0,VALID,23.4085,VALID,342,VALID,0.982813,
2011-09-15, 00:15:05,VALID,1001.63,VALID,0,VALID,89.0987,VALID,0,VALID,23.4493,VALID,359,VALID,1.25937,
2011-09-15, 00:16:05,VALID,1001.64,VALID,0,VALID,88.8164,VALID,0,VALID,23.4671,VALID,359,VALID,0.733984,
2011-09-15, 00:17:05,VALID,1001.65,VALID,0,VALID,88.6486,VALID,0,VALID,23.4475,VALID,359,VALID,0.631641,
2011-09-15, 00:18:05,VALID,1001.6,VALID,0,VALID,88.7325,VALID,0,VALID,23.4671,VALID,359,VALID,0.375,
2011-09-15, 00:19:05,VALID,1001.56,VALID,0,VALID,88.7554,VALID,0,VALID,23.4671,VALID,306,VALID,0.716406,
2011-09-15, 00:20:05,VALID,1001.56,VALID,0,VALID,88.7172,VALID,0,VALID,23.4671,VALID,306,VALID,0.289844,
2011-09-15, 00:21:05,VALID,1001.49,VALID,0,VALID,88.5417,VALID,0,VALID,23.4866,VALID,306,VALID,0,
2011-09-15, 00:22:05,VALID,1001.5,VALID,0,VALID,88.4502,VALID,0,VALID,23.4475,VALID,306,VALID,0,
2011-09-15, 00:23:05,VALID,1001.5,VALID,0,VALID,88.4883,VALID,0,VALID,23.428,VALID,306,VALID,0,
2011-09-15, 00:24:05,VALID,1001.54,VALID,0,VALID,88.5036,VALID,0,VALID,23.389,VALID,306,VALID,0.666406,
2011-09-15, 00:25:05,VALID,1001.52,VALID,0,VALID,88.496,VALID,0,VALID,23.35,VALID,91,VALID,1.29219,
2011-09-15, 00:26:05,VALID,1001.55,VALID,0,VALID,88.6867,VALID,0,VALID,23.311,VALID,86,VALID,1.01211,
2011-09-15, 00:27:05,VALID,1001.57,VALID,0,VALID,88.8546,VALID,0,VALID,23.2915,VALID,86,VALID,1.15781,
2011-09-15, 00:28:05,VALID,1001.59,VALID,0,VALID,89.0682,VALID,0,VALID,23.2719,VALID,86,VALID,1.23594,
2011-09-15, 00:29:05,VALID,1001.65,VALID,0,VALID,89.1521,VALID,0,VALID,23.2719,VALID,84,VALID,1.09805,
2011-09-15, 00:30:05,VALID,1001.66,VALID,0,VALID,89.1521,VALID,0,VALID,23.2329,VALID,81,VALID,0.850781,
2011-09-15, 00:31:05,VALID,1001.66,VALID,0,VALID,89.236,VALID,0,VALID,23.1939,VALID,81,VALID,0.517969,
2011-09-15, 00:32:05,VALID,1001.62,VALID,0,VALID,89.2437,VALID,0,VALID,23.1354,VALID,81,VALID,0.286719,
2011-09-15, 00:33:05,VALID,1001.58,VALID,0,VALID,89.4039,VALID,0,VALID,23.0769,VALID,81,VALID,0.364844,
2011-09-15, 00:34:05,VALID,1001.58,VALID,0,VALID,89.7549,VALID,0,VALID,23.0769,VALID,81,VALID,0.635547,
2011-09-15, 00:35:05,VALID,1001.52,VALID,0,VALID,89.9532,VALID,0,VALID,23.1159,VALID,81,VALID,0.702344,
2011-09-15, 00:36:05,VALID,1001.53,VALID,0,VALID,89.8464,VALID,0,VALID,23.1159,VALID,81,VALID,0.370703,
2011-09-15, 00:37:05,VALID,1001.5,VALID,0,VALID,89.7625,VALID,0,VALID,23.0964,VALID,81,VALID,0.189844,
2011-09-15, 00:38:05,VALID,1001.52,VALID,0,VALID,89.8311,VALID,0,VALID,23.1176,VALID,81,VALID,0.178516,
2011-09-15, 00:39:05,VALID,1001.5,VALID,0,VALID,89.8311,VALID,0,VALID,23.1176,VALID,81,VALID,0.119531,
2011-09-15, 00:40:05,VALID,1001.46,VALID,0,VALID,89.732,VALID,0,VALID,23.0981,VALID,81,VALID,0.592969,
2011-09-15, 00:41:05,VALID,1001.5,VALID,0,VALID,89.732,VALID,0,VALID,23.0378,VALID,45,VALID,0.966406,
2011-09-15, 00:42:05,VALID,1001.51,VALID,0,VALID,89.793,VALID,0,VALID,22.9988,VALID,45,VALID,1.01016,
2011-09-15, 00:43:05,VALID,1001.52,VALID,0,VALID,89.9074,VALID,0,VALID,23.0006,VALID,45,VALID,0.857031,
2011-09-15, 00:44:05,VALID,1001.52,VALID,0,VALID,89.9151,VALID,0,VALID,22.9403,VALID,45,VALID,0.832422,
2011-09-15, 00:45:05,VALID,1001.49,VALID,0,VALID,90.1134,VALID,0,VALID,22.9225,VALID,44,VALID,0.966016,
2011-09-15, 00:46:05,VALID,1001.47,VALID,0,VALID,90.2126,VALID,0,VALID,22.9403,VALID,15,VALID,1.2,
2011-09-15, 00:47:05,VALID,1001.49,VALID,0,VALID,90.0448,VALID,0,VALID,22.9208,VALID,13,VALID,0.839453,
2011-09-15, 00:48:05,VALID,1001.48,VALID,0,VALID,90.0371,VALID,0,VALID,22.9013,VALID,13,VALID,0.414453,
2011-09-15, 00:49:04,VALID,1001.45,VALID,0,VALID,90.0982,VALID,0,VALID,22.8818,VALID,13,VALID,0.328125,
2011-09-15, 00:50:04,VALID,1001.43,VALID,0,VALID,90.1363,VALID,0,VALID,22.8623,VALID,13,VALID,0.160547,
2011-09-15, 00:51:04,VALID,1001.39,VALID,0,VALID,90.4186,VALID,0,VALID,22.9013,VALID,13,VALID,0.535547,
2011-09-15, 00:52:04,VALID,1001.35,VALID,0,VALID,90.6017,VALID,0,VALID,22.9403,VALID,13,VALID,0.462109,
2011-09-15, 00:53:04,VALID,1001.27,VALID,0,VALID,90.6933,VALID,0,VALID,22.9793,VALID,13,VALID,0.312109,
2011-09-15, 00:54:04,VALID,1001.28,VALID,0,VALID,90.678,VALID,0,VALID,22.9793,VALID,13,VALID,0.414063,
2011-09-15, 00:55:04,VALID,1001.26,VALID,0,VALID,90.6857,VALID,0,VALID,23.0183,VALID,13,VALID,0.410937,
2011-09-15, 00:56:04,VALID,1001.28,VALID,0,VALID,90.6857,VALID,0,VALID,23.0183,VALID,13,VALID,0.0972656,
2011-09-15, 00:57:04,VALID,1001.3,VALID,0,VALID,90.472,VALID,0,VALID,22.9793,VALID,77,VALID,1.38555,
2011-09-15, 00:58:04,VALID,1001.28,VALID,0,VALID,90.1363,VALID,0,VALID,22.9811,VALID,77,VALID,1.6707,
2011-09-15, 00:59:04,VALID,1001.3,VALID,0,VALID,90.2584,VALID,0,VALID,22.9403,VALID,77,VALID,1.70742,
2011-09-15, 01:00:04,VALID,1001.28,VALID,0,VALID,90.3652,VALID,0,VALID,22.9208,VALID,82,VALID,1.72852,
2011-09-15, 01:01:04,VALID,1001.26,VALID,0,VALID,90.5254,VALID,0,VALID,22.9403,VALID,82,VALID,0.854688,
2011-09-15, 01:02:04,VALID,1001.28,VALID,0,VALID,90.6323,VALID,0,VALID,22.9403,VALID,82,VALID,0.558594,
2011-09-15, 01:03:04,VALID,1001.22,VALID,0,VALID,90.6628,VALID,0,VALID,22.9403,VALID,82,VALID,0.374609,
2011-09-15, 01:04:04,VALID,1001.22,VALID,0,VALID,90.6246,VALID,0,VALID,22.9615,VALID,82,VALID,0.0128906,
2011-09-15, 01:05:04,VALID,1001.22,VALID,0,VALID,90.6094,VALID,0,VALID,22.9208,VALID,82,VALID,0.237109,
2011-09-15, 01:06:04,VALID,1001.21,VALID,0,VALID,90.5407,VALID,0,VALID,22.9208,VALID,82,VALID,0,
2011-09-15, 01:07:04,VALID,1001.16,VALID,0,VALID,90.4873,VALID,0,VALID,22.9208,VALID,82,VALID,0.2625,
2011-09-15, 01:08:04,VALID,1001.12,VALID,0,VALID,90.4415,VALID,0,VALID,22.9793,VALID,82,VALID,0.492578,
2011-09-15, 01:09:04,VALID,1001.13,VALID,0,VALID,90.3042,VALID,0,VALID,23.0183,VALID,82,VALID,0.769531,
2011-09-15, 01:10:04,VALID,1001.11,VALID,0,VALID,90.1821,VALID,0,VALID,23.0183,VALID,13,VALID,1.09766,
2011-09-15, 01:11:04,VALID,1001.12,VALID,0,VALID,90.144,VALID,0,VALID,23.0183,VALID,13,VALID,1.125,
2011-09-15, 01:12:04,VALID,1001.14,VALID,0,VALID,90.1287,VALID,0,VALID,22.9988,VALID,13,VALID,1.1043,
2011-09-15, 01:13:04,VALID,1001.15,VALID,0,VALID,90.1592,VALID,0,VALID,22.9403,VALID,13,VALID,1.33242,
2011-09-15, 01:14:04,VALID,1001.19,VALID,0,VALID,90.205,VALID,0,VALID,22.9225,VALID,13,VALID,1.36133,
2011-09-15, 01:15:04,VALID,1001.18,VALID,0,VALID,90.3728,VALID,0,VALID,22.8818,VALID,18,VALID,1.75703,
2011-09-15, 01:16:04,VALID,1001.21,VALID,0,VALID,90.2889,VALID,0,VALID,22.8623,VALID,21,VALID,1.79766,
2011-09-15, 01:17:04,VALID,1001.21,VALID,0,VALID,90.3118,VALID,0,VALID,22.8037,VALID,23,VALID,1.97305,
2011-09-15, 01:18:04,VALID,1001.22,VALID,0,VALID,90.4644,VALID,0,VALID,22.8037,VALID,21,VALID,1.44883,
2011-09-15, 01:19:04,VALID,1001.2,VALID,0,VALID,90.5331,VALID,0,VALID,22.7647,VALID,21,VALID,1.54766,
2011-09-15, 01:20:04,VALID,1001.19,VALID,0,VALID,90.6704,VALID,0,VALID,22.7257,VALID,24,VALID,1.75625,
2011-09-15, 01:21:04,VALID,1001.17,VALID,0,VALID,90.7162,VALID,0,VALID,22.7452,VALID,29,VALID,1.50273,
2011-09-15, 01:22:04,VALID,1001.11,VALID,0,VALID,90.7162,VALID,0,VALID,22.724,VALID,31,VALID,1.63906,
2011-09-15, 01:23:04,VALID,1001.13,VALID,0,VALID,90.7314,VALID,0,VALID,22.7647,VALID,31,VALID,1.06836,
2011-09-15, 01:24:04,VALID,1001.12,VALID,0,VALID,90.7009,VALID,0,VALID,22.7647,VALID,60,VALID,0.436328,
2011-09-15, 01:25:04,VALID,1001.06,VALID,0,VALID,90.7314,VALID,0,VALID,22.7452,VALID,60,VALID,0.0894531,
2011-09-15, 01:26:04,VALID,1001.06,VALID,0,VALID,90.7925,VALID,0,VALID,22.7452,VALID,60,VALID,0.495313,
2011-09-15, 01:27:04,VALID,1001.03,VALID,0,VALID,90.8764,VALID,0,VALID,22.7257,VALID,61,VALID,0.166016,
2011-09-15, 01:28:04,VALID,1001.01,VALID,0,VALID,90.8764,VALID,0,VALID,22.7257,VALID,61,VALID,0.119531,
2011-09-15, 01:29:04,VALID,1000.98,VALID,0,VALID,90.8993,VALID,0,VALID,22.7062,VALID,61,VALID,0.0820313,
2011-09-15, 01:30:04,VALID,1000.98,VALID,0,VALID,90.9527,VALID,0.112286,VALID,22.7062,VALID,61,VALID,0.187891,
2011-09-15, 01:31:04,VALID,1000.98,VALID,0,VALID,90.9832,VALID,0,VALID,22.7257,VALID,61,VALID,0.277734,
2011-09-15, 01:32:04,VALID,1000.97,VALID,0,VALID,90.9909,VALID,0,VALID,22.7257,VALID,61,VALID,0.447656,
2011-09-15, 01:33:04,VALID,1000.99,VALID,0,VALID,90.8993,VALID,0,VALID,22.7842,VALID,34,VALID,1.01523,
2011-09-15, 01:34:04,VALID,1000.98,VALID,0,VALID,90.762,VALID,0,VALID,22.8037,VALID,21,VALID,1.15,
2011-09-15, 01:35:04,VALID,1000.97,VALID,0,VALID,90.617,VALID,0,VALID,22.8037,VALID,8,VALID,1.34102,
2011-09-15, 01:36:04,VALID,1000.98,VALID,0,VALID,90.5941,VALID,0,VALID,22.8232,VALID,7,VALID,1.65039,
2011-09-15, 01:37:04,VALID,1000.98,VALID,0,VALID,90.5483,VALID,0,VALID,22.8818,VALID,10,VALID,1.19336,
2011-09-15, 01:38:04,VALID,1000.98,VALID,0,VALID,90.4949,VALID,0,VALID,22.8818,VALID,28,VALID,1.23125,
2011-09-15, 01:39:04,VALID,1000.96,VALID,0,VALID,90.4415,VALID,0,VALID,22.8623,VALID,29,VALID,1.01563,
2011-09-15, 01:40:04,VALID,1000.96,VALID,0,VALID,90.4491,VALID,0,VALID,22.8427,VALID,29,VALID,0.936719,
2011-09-15, 01:41:04,VALID,1000.96,VALID,0,VALID,90.4644,VALID,0,VALID,22.8232,VALID,11,VALID,0.853125,
2011-09-15, 01:42:04,VALID,1000.93,VALID,0,VALID,90.5026,VALID,0,VALID,22.8037,VALID,11,VALID,0.324609,
2011-09-15, 01:43:04,VALID,1000.89,VALID,0,VALID,90.5712,VALID,0,VALID,22.7842,VALID,11,VALID,0.205078,
2011-09-15, 01:44:04,VALID,1000.83,VALID,0,VALID,90.6399,VALID,0,VALID,22.7842,VALID,11,VALID,0,
2011-09-15, 01:45:04,VALID,1000.85,VALID,0,VALID,90.6628,VALID,0,VALID,22.7842,VALID,11,VALID,0,
2011-09-15, 01:46:04,VALID,1000.81,VALID,0,VALID,90.7162,VALID,0,VALID,22.7842,VALID,11,VALID,0.0105469,
2011-09-15, 01:47:04,VALID,1000.8,VALID,0,VALID,90.7772,VALID,0,VALID,22.7842,VALID,11,VALID,0.367188,
2011-09-15, 01:48:04,VALID,1000.8,VALID,0,VALID,90.7772,VALID,0,VALID,22.7842,VALID,11,VALID,0.559375,
2011-09-15, 01:49:04,VALID,1000.84,VALID,0,VALID,90.8306,VALID,0,VALID,22.8037,VALID,36,VALID,0.760156,
2011-09-15, 01:50:04,VALID,1000.83,VALID,0,VALID,90.8993,VALID,0,VALID,22.8232,VALID,102,VALID,1.02695,
2011-09-15, 01:51:04,VALID,1000.86,VALID,0,VALID,90.9069,VALID,0,VALID,22.8623,VALID,107,VALID,1.03984,
2011-09-15, 01:52:04,VALID,1000.84,VALID,0,VALID,90.884,VALID,0,VALID,22.9013,VALID,115,VALID,1.46484,
2011-09-15, 01:53:04,VALID,1000.86,VALID,0,VALID,90.7391,VALID,0,VALID,22.9403,VALID,135,VALID,1.37383,
2011-09-15, 01:54:04,VALID,1000.82,VALID,0,VALID,90.4644,VALID,0,VALID,22.9793,VALID,146,VALID,1.02617,
2011-09-15, 01:55:04,VALID,1000.82,VALID,0,VALID,90.2508,VALID,0,VALID,23.0361,VALID,146,VALID,0.947266,
2011-09-15, 01:56:04,VALID,1000.75,VALID,0,VALID,90.0753,VALID,0,VALID,23.0946,VALID,146,VALID,1.03437,
2011-09-15, 01:57:04,VALID,1000.74,VALID,0,VALID,89.7549,VALID,0,VALID,23.1744,VALID,165,VALID,1.10664,
2011-09-15, 01:58:04,VALID,1000.69,VALID,0,VALID,89.3963,VALID,0,VALID,23.2134,VALID,173,VALID,0.780859,
2011-09-15, 01:59:04,VALID,1000.63,VALID,0,VALID,88.824,VALID,0,VALID,23.2524,VALID,173,VALID,0.858984,
2011-09-15, 02:00:04,VALID,1000.61,VALID,0,VALID,88.4883,VALID,0,VALID,23.311,VALID,173,VALID,0.463281,
2011-09-15, 02:01:04,VALID,1000.58,VALID,0,VALID,88.1908,VALID,0,VALID,23.3305,VALID,173,VALID,0.901953,
2011-09-15, 02:02:04,VALID,1000.58,VALID,0,VALID,88.0992,VALID,0,VALID,23.389,VALID,173,VALID,0.321484,
2011-09-15, 02:03:04,VALID,1000.55,VALID,0,VALID,87.9771,VALID,0,VALID,23.4085,VALID,173,VALID,0.577344,
2011-09-15, 02:04:04,VALID,1000.54,VALID,0,VALID,87.7025,VALID,0,VALID,23.4475,VALID,173,VALID,0.6625,
2011-09-15, 02:05:04,VALID,1000.54,VALID,0,VALID,87.733,VALID,0,VALID,23.4866,VALID,311,VALID,0.832031,
2011-09-15, 02:06:04,VALID,1000.58,VALID,0,VALID,87.5804,VALID,0,VALID,23.4866,VALID,311,VALID,0.850391,
2011-09-15, 02:07:04,VALID,1000.61,VALID,0,VALID,87.8246,VALID,0,VALID,23.4671,VALID,311,VALID,0.794141,
2011-09-15, 02:08:04,VALID,1000.67,VALID,0,VALID,87.9314,VALID,0,VALID,23.428,VALID,311,VALID,0.803906,
2011-09-15, 02:09:04,VALID,1000.72,VALID,0,VALID,88.3586,VALID,0,VALID,23.389,VALID,31,VALID,1.27734,
2011-09-15, 02:10:04,VALID,1000.73,VALID,0,VALID,88.6257,VALID,0,VALID,23.2915,VALID,39,VALID,1.08516,
2011-09-15, 02:11:04,VALID,1000.75,VALID,0,VALID,88.7783,VALID,0,VALID,23.2719,VALID,32,VALID,0.903516,
2011-09-15, 02:12:04,VALID,1000.74,VALID,0,VALID,88.8317,VALID,0,VALID,23.2134,VALID,32,VALID,0.590234,
2011-09-15, 02:13:04,VALID,1000.74,VALID,0,VALID,88.8851,VALID,0,VALID,23.2134,VALID,32,VALID,1.06602,
2011-09-15, 02:14:04,VALID,1000.73,VALID,0,VALID,89.03,VALID,0,VALID,23.1939,VALID,32,VALID,1.24609,
2011-09-15, 02:15:04,VALID,1000.76,VALID,0,VALID,89.2818,VALID,0,VALID,23.1549,VALID,49,VALID,1.39688,
2011-09-15, 02:16:04,VALID,1000.76,VALID,0,VALID,89.7091,VALID,0,VALID,23.1549,VALID,49,VALID,1.16445,
2011-09-15, 02:17:04,VALID,1000.73,VALID,0,VALID,90.0219,VALID,0,VALID,23.1159,VALID,44,VALID,1.27969,
2011-09-15, 02:18:04,VALID,1000.71,VALID,0,VALID,89.9609,VALID,0,VALID,23.0769,VALID,44,VALID,0.984766,
2011-09-15, 02:19:04,VALID,1000.73,VALID,0,VALID,89.7777,VALID,0,VALID,23.0573,VALID,44,VALID,0.766797,
2011-09-15, 02:20:04,VALID,1000.73,VALID,0,VALID,89.5717,VALID,0,VALID,23.0769,VALID,44,VALID,0.694922,
2011-09-15, 02:21:04,VALID,1000.68,VALID,0,VALID,89.2971,VALID,0,VALID,23.0964,VALID,44,VALID,0.458594,
2011-09-15, 02:22:04,VALID,1000.68,VALID,0,VALID,89.2589,VALID,0,VALID,23.0964,VALID,44,VALID,0.260156,
2011-09-15, 02:23:04,VALID,1000.66,VALID,0,VALID,89.2589,VALID,0,VALID,23.0964,VALID,44,VALID,0.489844,
2011-09-15, 02:24:04,VALID,1000.6,VALID,0,VALID,89.1216,VALID,0,VALID,23.1159,VALID,44,VALID,0.0488281,
2011-09-15, 02:25:04,VALID,1000.54,VALID,0,VALID,89.03,VALID,0,VALID,23.1354,VALID,44,VALID,0.0527344,
2011-09-15, 02:26:04,VALID,1000.52,VALID,0,VALID,89.0529,VALID,0.112286,VALID,23.1354,VALID,44,VALID,0.420703,
2011-09-15, 02:27:04,VALID,1000.49,VALID,0,VALID,89.0606,VALID,0,VALID,23.1762,VALID,44,VALID,0.403125,
2011-09-15, 02:28:04,VALID,1000.52,VALID,0,VALID,89.0453,VALID,0,VALID,23.1549,VALID,44,VALID,0.270703,
2011-09-15, 02:29:04,VALID,1000.53,VALID,0,VALID,89.0148,VALID,0,VALID,23.1744,VALID,44,VALID,0.333984,
2011-09-15, 02:30:04,VALID,1000.44,VALID,0,VALID,89.03,VALID,0,VALID,23.1744,VALID,44,VALID,0.623438,
2011-09-15, 02:31:04,VALID,1000.43,VALID,0,VALID,89.0453,VALID,0.112286,VALID,23.1939,VALID,44,VALID,0.70625,
2011-09-15, 02:32:04,VALID,1000.5,VALID,0,VALID,89.175,VALID,0,VALID,23.1726,VALID,44,VALID,0.383594,
2011-09-15, 02:33:04,VALID,1000.52,VALID,0,VALID,89.3428,VALID,0,VALID,23.1939,VALID,44,VALID,0.119531,
2011-09-15, 02:34:04,VALID,1000.54,VALID,0,VALID,89.4573,VALID,0,VALID,23.1549,VALID,44,VALID,0.449219,
2011-09-15, 02:35:04,VALID,1000.54,VALID,0,VALID,89.4726,VALID,0,VALID,23.1336,VALID,44,VALID,0.532422,
2011-09-15, 02:36:04,VALID,1000.53,VALID,0,VALID,89.4726,VALID,0,VALID,23.1141,VALID,44,VALID,0.760156,
2011-09-15, 02:37:04,VALID,1000.5,VALID,0,VALID,89.5412,VALID,0,VALID,23.1354,VALID,44,VALID,0.887109,
2011-09-15, 02:38:04,VALID,1000.52,VALID,0,VALID,89.7167,VALID,0,VALID,23.1141,VALID,44,VALID,1.14922,
2011-09-15, 02:39:04,VALID,1000.54,VALID,0,VALID,89.8388,VALID,0,VALID,23.0964,VALID,44,VALID,1.33594,
2011-09-15, 02:40:04,VALID,1000.52,VALID,0,VALID,89.9532,VALID,0,VALID,23.0964,VALID,44,VALID,1.20977,
2011-09-15, 02:41:04,VALID,1000.55,VALID,0,VALID,90.0906,VALID,0,VALID,23.0769,VALID,44,VALID,0.985547,
2011-09-15, 02:42:04,VALID,1000.54,VALID,0,VALID,90.1897,VALID,0,VALID,23.0378,VALID,44,VALID,1.18203,
2011-09-15, 02:43:04,VALID,1000.52,VALID,0,VALID,90.1668,VALID,0.112286,VALID,23.0361,VALID,44,VALID,1.24531,
2011-09-15, 02:44:04,VALID,1000.53,VALID,0,VALID,90.0524,VALID,0,VALID,23.0378,VALID,44,VALID,1.09375,
2011-09-15, 02:45:04,VALID,1000.55,VALID,0,VALID,89.938,VALID,0,VALID,23.0378,VALID,44,VALID,0.589453,
2011-09-15, 02:46:04,VALID,1000.56,VALID,0,VALID,89.9532,VALID,0,VALID,23.0573,VALID,44,VALID,0.214453,
2011-09-15, 02:47:04,VALID,1000.56,VALID,0,VALID,89.9837,VALID,0,VALID,23.0378,VALID,44,VALID,0.442578,
2011-09-15, 02:48:04,VALID,1000.55,VALID,0,VALID,90.0295,VALID,0,VALID,23.0378,VALID,44,VALID,0.516406,
2011-09-15, 02:49:04,VALID,1000.5,VALID,0,VALID,90.0906,VALID,0,VALID,23.0166,VALID,44,VALID,1.00508,
2011-09-15, 02:50:04,VALID,1000.45,VALID,0,VALID,89.8617,VALID,0.112286,VALID,23.0378,VALID,44,VALID,1.12109,
2011-09-15, 02:51:04,VALID,1000.44,VALID,0,VALID,89.5794,VALID,0,VALID,23.0964,VALID,44,VALID,0.853906,
2011-09-15, 02:52:04,VALID,1000.4,VALID,0,VALID,89.442,VALID,0,VALID,23.0964,VALID,44,VALID,0.648047,
2011-09-15, 02:53:04,VALID,1000.35,VALID,0,VALID,89.4649,VALID,0,VALID,23.0964,VALID,44,VALID,0.0699219,
2011-09-15, 02:54:04,VALID,1000.34,VALID,0,VALID,89.4878,VALID,0,VALID,23.0769,VALID,44,VALID,0.195703,
2011-09-15, 02:55:04,VALID,1000.3,VALID,0,VALID,89.4954,VALID,0,VALID,23.0769,VALID,44,VALID,0,
2011-09-15, 02:56:04,VALID,1000.27,VALID,0,VALID,89.3886,VALID,0,VALID,23.0751,VALID,44,VALID,0.0113281,
2011-09-15, 02:57:04,VALID,1000.23,VALID,0,VALID,89.3352,VALID,0,VALID,23.0769,VALID,44,VALID,0.637109,
2011-09-15, 02:58:04,VALID,1000.22,VALID,0,VALID,89.1597,VALID,0,VALID,23.1354,VALID,44,VALID,0.772656,
2011-09-15, 02:59:04,VALID,1000.2,VALID,0,VALID,88.8851,VALID,0,VALID,23.1939,VALID,44,VALID,0.727734,
2011-09-15, 03:00:04,VALID,1000.23,VALID,0,VALID,88.5951,VALID,0.112286,VALID,23.2329,VALID,44,VALID,0.567187,
2011-09-15, 03:01:04,VALID,1000.25,VALID,0,VALID,88.29,VALID,0.112286,VALID,23.2915,VALID,44,VALID,0.602734,
2011-09-15, 03:02:04,VALID,1000.29,VALID,0,VALID,88.145,VALID,0,VALID,23.3092,VALID,44,VALID,0.814844,
2011-09-15, 03:03:04,VALID,1000.31,VALID,0,VALID,87.733,VALID,0.112286,VALID,23.3482,VALID,44,VALID,0.650781,
2011-09-15, 03:04:04,VALID,1000.35,VALID,0,VALID,87.7025,VALID,0,VALID,23.4067,VALID,44,VALID,0.598047,
2011-09-15, 03:05:04,VALID,1000.37,VALID,0,VALID,87.2752,VALID,0.112286,VALID,23.4085,VALID,44,VALID,0.229687,
2011-09-15, 03:06:04,VALID,1000.36,VALID,0,VALID,87.1837,VALID,0,VALID,23.4475,VALID,44,VALID,0.357422,
2011-09-15, 03:07:04,VALID,1000.37,VALID,0,VALID,87.0463,VALID,0,VALID,23.4866,VALID,44,VALID,0.657422,
2011-09-15, 03:08:04,VALID,1000.4,VALID,0,VALID,86.7411,VALID,0,VALID,23.4848,VALID,44,VALID,0.622656,
2011-09-15, 03:09:04,VALID,1000.34,VALID,0,VALID,86.7411,VALID,0,VALID,23.5451,VALID,44,VALID,0.534766,
2011-09-15, 03:10:04,VALID,1000.32,VALID,0,VALID,86.6115,VALID,0,VALID,23.5841,VALID,121,VALID,1.06875,
2011-09-15, 03:11:04,VALID,1000.3,VALID,0,VALID,86.703,VALID,0,VALID,23.6232,VALID,121,VALID,0.797656,
2011-09-15, 03:12:04,VALID,1000.28,VALID,0,VALID,86.6649,VALID,0,VALID,23.6622,VALID,121,VALID,0.558984,
2011-09-15, 03:13:04,VALID,1000.26,VALID,0,VALID,86.5962,VALID,0,VALID,23.6427,VALID,121,VALID,0.447266,
2011-09-15, 03:14:04,VALID,1000.26,VALID,0,VALID,86.2986,VALID,0,VALID,23.6214,VALID,121,VALID,0.327734,
2011-09-15, 03:15:04,VALID,1000.27,VALID,0,VALID,86.2376,VALID,0,VALID,23.6427,VALID,121,VALID,0.119531,
2011-09-15, 03:16:04,VALID,1000.25,VALID,0,VALID,86.3978,VALID,0,VALID,23.6214,VALID,121,VALID,0.00234375,
2011-09-15, 03:17:04,VALID,1000.28,VALID,0,VALID,86.9624,VALID,0,VALID,23.6232,VALID,121,VALID,0.542969,
2011-09-15, 03:18:04,VALID,1000.3,VALID,0,VALID,87.26,VALID,0,VALID,23.6232,VALID,121,VALID,0.559375,
2011-09-15, 03:19:04,VALID,1000.3,VALID,0,VALID,87.6262,VALID,0,VALID,23.6036,VALID,121,VALID,0.752344,
2011-09-15, 03:20:04,VALID,1000.3,VALID,0,VALID,87.4354,VALID,0,VALID,23.5646,VALID,121,VALID,0.660156,
2011-09-15, 03:21:04,VALID,1000.26,VALID,0,VALID,87.5041,VALID,0,VALID,23.5451,VALID,1,VALID,0.808984,
2011-09-15, 03:22:04,VALID,1000.26,VALID,0,VALID,87.7559,VALID,0,VALID,23.5256,VALID,359,VALID,0.936719,
2011-09-15, 03:23:04,VALID,1000.26,VALID,0,VALID,88.0229,VALID,0,VALID,23.4671,VALID,359,VALID,0.967188,
2011-09-15, 03:24:04,VALID,1000.25,VALID,0,VALID,88.3129,VALID,0,VALID,23.428,VALID,360,VALID,1.09609,
2011-09-15, 03:25:04,VALID,1000.24,VALID,0,VALID,88.6409,VALID,0,VALID,23.3695,VALID,3,VALID,1.10312,
2011-09-15, 03:26:04,VALID,1000.22,VALID,0,VALID,88.9003,VALID,0,VALID,23.311,VALID,22,VALID,1.26172,
2011-09-15, 03:27:04,VALID,1000.22,VALID,0,VALID,89.4115,VALID,0,VALID,23.2915,VALID,32,VALID,1.10742,
2011-09-15, 03:28:04,VALID,1000.19,VALID,0,VALID,89.7701,VALID,0,VALID,23.2719,VALID,45,VALID,1.10977,
2011-09-15, 03:29:04,VALID,1000.18,VALID,0,VALID,90.0295,VALID,0,VALID,23.2329,VALID,54,VALID,1.58633,
2011-09-15, 03:30:04,VALID,1000.17,VALID,0,VALID,90.1134,VALID,0,VALID,23.1726,VALID,69,VALID,1.57305,
2011-09-15, 03:31:04,VALID,1000.16,VALID,0,VALID,90.06,VALID,0,VALID,23.1744,VALID,68,VALID,1.7793,
2011-09-15, 03:32:04,VALID,1000.18,VALID,0,VALID,89.9532,VALID,0,VALID,23.1744,VALID,65,VALID,1.68125,
2011-09-15, 03:33:04,VALID,1000.19,VALID,0,VALID,89.6938,VALID,0,VALID,23.1939,VALID,52,VALID,1.62227,
2011-09-15, 03:34:04,VALID,1000.22,VALID,0,VALID,89.8006,VALID,0,VALID,23.2134,VALID,56,VALID,1.56055,
2011-09-15, 03:35:04,VALID,1000.23,VALID,0,VALID,89.8235,VALID,0,VALID,23.2134,VALID,69,VALID,1.21211,
2011-09-15, 03:36:04,VALID,1000.25,VALID,0,VALID,89.8693,VALID,0,VALID,23.1921,VALID,66,VALID,1.21328,
2011-09-15, 03:37:04,VALID,1000.27,VALID,0,VALID,89.7625,VALID,0,VALID,23.1939,VALID,46,VALID,1.24375,
2011-09-15, 03:38:04,VALID,1000.25,VALID,0,VALID,89.7472,VALID,0,VALID,23.1939,VALID,44,VALID,1.17734,
2011-09-15, 03:39:04,VALID,1000.25,VALID,0,VALID,89.6633,VALID,0,VALID,23.1939,VALID,29,VALID,0.860156,
2011-09-15, 03:40:04,VALID,1000.27,VALID,0,VALID,89.6023,VALID,0,VALID,23.1939,VALID,23,VALID,1.03789,
2011-09-15, 03:41:04,VALID,1000.3,VALID,0,VALID,89.5946,VALID,0,VALID,23.1726,VALID,33,VALID,0.813672,
2011-09-15, 03:42:04,VALID,1000.35,VALID,0,VALID,89.3963,VALID,0,VALID,23.1939,VALID,33,VALID,0.765625,
2011-09-15, 03:43:04,VALID,1000.38,VALID,0,VALID,89.2437,VALID,0,VALID,23.1939,VALID,46,VALID,0.133984,
2011-09-15, 03:44:04,VALID,1000.4,VALID,0,VALID,89.1903,VALID,0,VALID,23.1744,VALID,46,VALID,0.158984,
2011-09-15, 03:45:04,VALID,1000.43,VALID,0,VALID,88.9995,VALID,0,VALID,23.1744,VALID,46,VALID,0.588281,
2011-09-15, 03:46:04,VALID,1000.42,VALID,0,VALID,89.0377,VALID,0,VALID,23.2134,VALID,46,VALID,0.283203,